Seale, AL

6:49 PM CDT on August 31, 2016 (GMT -0500)
Lawson Army Air Field

Weather History for KLSF - December, 2011

Change the Weather History Date:

Monday, December 5, 2011

  Actual Average Record
Temperature  
Mean Temperature 60 °F -  
Max Temperature 75 °F 61 °F 80 °F (2013)
Min Temperature 46 °F 37 °F 21 °F (2000)
Degree Days  
Heating Degree Days 4    
Growing Degree Days 10 (Base 50)    
Moisture  
Dew Point 51 °F    
Average Humidity 91    
Maximum Humidity 100    
Minimum Humidity 52    
Precipitation  
Precipitation 0.00 in - - ()
Sea Level Pressure  
Sea Level Pressure 30.15 in    
Wind  
Wind Speed 2 mph (SE)    
Max Wind Speed 13 mph    
Max Gust Speed 23 mph    
Visibility 4 miles    
Events Fog    
Averages and records for this station are not official NWS values.
T = Trace of Precipitation, MM = Missing Value Source: NWS Daily Summary

Daily Weather History Graph

Daily Weather History Graph

Search for Another Location

Airport or City:

Trip Planner

Search our weather history database for the weather conditions in past years. The results will help you decide how hot, cold, wet, or windy it might be!

Date:

Astronomy

Dec. 05, 2011 Rise Set
Actual Time 7:26 AM EST 5:34 PM EST
Civil Twilight 6:59 AM EST 6:01 PM EST
Nautical Twilight 6:29 AM EST 6:31 PM EST
Astronomical Twilight 5:59 AM EST 7:01 PM EST
Moon 2:22 PM EST (12/5) 2:58 AM EST (12/5)
Length of Visible Light 11h 01m
Length of Day
10h 08m
Waxing Gibbous, 79% of the Moon is Illuminated
Dec 5
Waxing Gibbous
Dec 10
Full
Dec 17
Last Quarter
Dec 24
New
Jan 1
First Quarter

Hourly Weather History & Observations

Time (EST) Temp. Windchill Dew Point Humidity Pressure Visibility Wind Dir Wind Speed Gust Speed Precip Events Conditions
12:55 AM 55.0 °F - 50.5 °F 85% 30.20 in 10.0 mi Calm Calm - N/A   Clear
1:55 AM 51.1 °F - 49.3 °F 94% 30.19 in 10.0 mi SE 3.5 mph - N/A   Mostly Cloudy
2:55 AM 49.3 °F - 47.8 °F 95% 30.18 in 10.0 mi Calm Calm - N/A   Mostly Cloudy
3:55 AM 52.3 °F - 51.8 °F 98% 30.17 in 10.0 mi SE 4.6 mph - N/A   Mostly Cloudy
4:55 AM 52.9 °F - 52.2 °F 97% 30.16 in 9.0 mi ESE 4.6 mph - N/A   Clear
5:01 AM 51.8 °F - 51.8 °F 100% 30.16 in 8.0 mi SE 3.5 mph - N/A   Clear
5:13 AM 53.6 °F - 51.8 °F 94% 30.16 in 7.0 mi SE 3.5 mph - N/A   Clear
5:32 AM 53.6 °F - 53.6 °F 100% 30.16 in 2.5 mi Calm Calm - N/A   Clear
5:33 AM 53.6 °F - 53.6 °F 100% 30.16 in 2.0 mi Calm Calm - N/A   Clear
5:34 AM 53.6 °F - 51.8 °F 94% 30.16 in 1.5 mi Calm Calm - N/A   Clear
5:35 AM 51.8 °F - 51.8 °F 100% 30.16 in 1.0 mi Calm Calm - N/A   Clear
5:36 AM 51.8 °F - 51.8 °F 100% 30.17 in 0.8 mi Calm Calm - N/A   Clear
5:37 AM 51.8 °F - 50.0 °F 94% 30.16 in 0.5 mi Calm Calm - N/A Fog Fog
5:39 AM 50.0 °F - 50.0 °F 100% 30.16 in 0.5 mi Calm Calm - N/A Fog Fog
5:40 AM 50.0 °F - 50.0 °F 100% 30.17 in 0.2 mi Calm Calm - N/A Fog Fog
5:41 AM 50.0 °F - 48.2 °F 94% 30.16 in 0.2 mi Calm Calm - N/A Fog Fog
5:44 AM 48.2 °F - 48.2 °F 100% 30.17 in 0.2 mi Calm Calm - N/A Fog Fog
5:49 AM 48.2 °F - 46.4 °F 93% 30.17 in 0.2 mi Calm Calm - N/A Fog Fog
5:55 AM 48.0 °F - 47.5 °F 98% 30.17 in 0.2 mi WNW 3.5 mph - N/A Fog Fog
6:01 AM 48.2 °F - 48.2 °F 100% 30.17 in 0.2 mi Calm Calm - N/A Fog Fog
6:09 AM 48.2 °F - 46.4 °F 93% 30.17 in 0.2 mi Calm Calm - N/A Fog Fog
6:24 AM 48.2 °F - 48.2 °F 100% 30.17 in 0.2 mi Calm Calm - N/A Fog Fog
6:30 AM 48.2 °F - 48.2 °F 100% 30.17 in 0.2 mi Calm Calm - N/A Fog Fog
6:40 AM 48.2 °F - 48.2 °F 100% 30.17 in 0.2 mi Calm Calm - N/A Fog Fog
6:54 AM 46.4 °F - 46.4 °F 100% 30.17 in 0.2 mi Calm Calm - N/A Fog Fog
6:55 AM 46.6 °F - 46.4 °F 99% 30.17 in 0.2 mi Calm Calm - N/A Fog Fog
7:21 AM 46.4 °F 45.2 °F 44.6 °F 93% 30.16 in 10.0 mi NNE 3.5 mph - N/A   Clear
7:35 AM 46.4 °F - 46.4 °F 100% 30.17 in 2.5 mi Calm Calm - N/A   Clear
7:36 AM 46.4 °F - 46.4 °F 100% 30.17 in 1.8 mi Calm Calm - N/A   Clear
7:37 AM 46.4 °F - 46.4 °F 100% 30.17 in 1.2 mi Calm Calm - N/A   Clear
7:39 AM 46.4 °F - 46.4 °F 100% 30.17 in 1.0 mi Calm Calm - N/A   Clear
7:40 AM 46.4 °F - 46.4 °F 100% 30.17 in 0.8 mi Calm Calm - N/A   Clear
7:41 AM 46.4 °F - 46.4 °F 100% 30.17 in 0.8 mi Calm Calm - N/A   Mist
7:42 AM 46.4 °F - 46.4 °F 100% 30.17 in 0.5 mi Calm Calm - N/A Fog Fog
7:43 AM 46.4 °F - 46.4 °F 100% 30.17 in 0.5 mi Calm Calm - N/A Fog Fog
7:44 AM 46.4 °F - 46.4 °F 100% 30.17 in 0.5 mi Calm Calm - N/A Fog Fog
7:49 AM 46.4 °F - 46.4 °F 100% 30.17 in 0.2 mi Calm Calm - N/A Fog Fog
7:55 AM 47.8 °F - 47.7 °F 99% 30.17 in 0.2 mi Calm Calm - N/A Fog Fog
7:56 AM 48.2 °F - 48.2 °F 100% 30.17 in 0.2 mi Calm Calm - N/A Fog Fog
7:58 AM 48.2 °F - 48.2 °F 100% 30.17 in 0.5 mi Calm Calm - N/A Fog Fog
8:00 AM 48.2 °F - 48.2 °F 100% 30.17 in 0.5 mi Calm Calm - N/A Fog Fog
8:01 AM 48.2 °F - 48.2 °F 100% 30.17 in 0.5 mi Calm Calm - N/A Fog Fog
8:02 AM 48.2 °F - 48.2 °F 100% 30.17 in 0.8 mi Calm Calm - N/A   Mostly Cloudy
8:04 AM 48.2 °F - 48.2 °F 100% 30.17 in 1.0 mi Calm Calm - N/A   Mostly Cloudy
8:06 AM 50.0 °F - 48.2 °F 94% 30.17 in 1.2 mi Calm Calm - N/A   Mostly Cloudy
8:07 AM 50.0 °F - 50.0 °F 100% 30.17 in 1.5 mi Calm Calm - N/A   Mostly Cloudy
8:08 AM 50.0 °F - 50.0 °F 100% 30.17 in 2.0 mi Calm Calm - N/A   Overcast
8:09 AM 50.0 °F - 50.0 °F 100% 30.17 in 3.0 mi Calm Calm - N/A   Overcast
8:55 AM 55.6 °F - 55.2 °F 99% 30.18 in 10.0 mi Calm Calm - N/A   Overcast
9:01 AM 55.4 °F - 55.4 °F 100% 30.18 in 10.0 mi SE 3.5 mph - N/A   Overcast
9:19 AM 57.2 °F - 57.2 °F 100% 30.18 in 10.0 mi Calm Calm - N/A   Mostly Cloudy
9:30 AM 57.2 °F - 57.2 °F 100% 30.18 in 10.0 mi Calm Calm - N/A   Scattered Clouds
9:55 AM 60.8 °F - 60.4 °F 99% 30.18 in 10.0 mi SE 4.6 mph - N/A   Clear
10:55 AM 66.2 °F - 62.8 °F 89% 30.16 in 10.0 mi SE 12.7 mph - N/A   Clear
11:55 AM 71.1 °F - 56.1 °F 59% 30.13 in 10.0 mi ESE 8.1 mph - N/A   Clear
12:55 PM 73.8 °F - 57.0 °F 56% 30.09 in 10.0 mi SSE 12.7 mph 23.0 mph N/A   Clear
1:55 PM 73.9 °F - 57.7 °F 57% 30.07 in 10.0 mi SE 11.5 mph - N/A   Scattered Clouds
2:55 PM 74.7 °F - 56.1 °F 52% 30.04 in 10.0 mi SSE 8.1 mph - N/A   Scattered Clouds
3:55 PM 75.4 °F - 56.8 °F 52% 30.04 in 10.0 mi South 10.4 mph - N/A   Mostly Cloudy
4:55 PM 73.6 °F - 57.0 °F 56% 30.06 in 10.0 mi South 5.8 mph - N/A   Overcast
5:55 PM 68.5 °F - 57.2 °F 67% 30.06 in 10.0 mi ESE 4.6 mph - N/A   Overcast
6:55 PM 66.2 °F - 57.4 °F 73% 30.05 in 10.0 mi SSE 3.5 mph - N/A   Overcast
7:55 PM 69.1 °F - 57.4 °F 66% 30.08 in 10.0 mi South 5.8 mph - N/A   Overcast
8:55 PM 66.4 °F - 58.1 °F 75% 30.08 in 10.0 mi SSE 6.9 mph - N/A   Overcast
9:55 PM 68.2 °F - 59.0 °F 72% 30.07 in 10.0 mi SSE 6.9 mph - N/A   Overcast
10:55 PM 68.7 °F - 59.5 °F 72% 30.07 in 10.0 mi SSE 8.1 mph - N/A   Overcast
11:55 PM 68.7 °F - 59.5 °F 72% 30.07 in 10.0 mi South 6.9 mph - N/A   Overcast